Location: Unspecified
(33.2407°S, 0.0000°E)
Time: 21:15:51
(UTC+00:00)

NO-84 - Visible Passes

Search period start: 18 July 2019 00:00
Search period end: 28 July 2019 00:00
Orbit: 331 x 518 km, 55.0° (Epoch: 10 July)

Date Brightness Start Highest point End Pass type
(mag) Time Alt. Az. Time Alt. Az. Time Alt. Az.
18 Jul ? 05:34:11 31° NW 05:34:11 31° NW 05:36:41 10° N visible
19 Jul ? 04:50:53 14° NNE 04:50:53 14° NNE 04:51:26 10° NNE visible
20 Jul ? 19:02:55 10° NNW 19:04:58 26° N 19:04:58 26° N visible
21 Jul ? 18:17:59 10° N 18:20:57 21° ENE 18:21:42 20° ENE visible
21 Jul ? 19:53:44 10° WNW 19:54:49 17° WNW 19:54:49 17° WNW visible
22 Jul ? 19:07:39 10° NW 19:11:27 62° WSW 19:11:27 62° WSW visible
23 Jul ? 18:21:52 10° NNW 18:25:45 72° NE 18:27:58 25° SE visible
23 Jul ? 20:00:31 10° WSW 20:01:05 12° WSW 20:01:05 12° WSW visible
24 Jul ? 17:36:24 10° NNW 17:40:00 38° NE 17:43:45 10° ESE visible
24 Jul ? 19:13:38 10° W 19:16:46 22° SW 19:17:30 21° SSW visible
25 Jul ? 18:27:09 10° WNW 18:30:47 35° SW 18:33:48 14° SSE visible
26 Jul ? 17:41:00 10° NW 17:44:51 61° SW 17:48:50 10° SE visible
27 Jul ? 18:33:49 10° WSW 18:36:03 14° SW 18:38:20 10° S visible
